Location: Bright Skies Observatory
(38.9689°N, 77.0681°W)
Time: 23:38:59
(UTC-04:00)

Daily predictions for brighter satellites

Satellite Brightness Start Highest point End
(mag) Time Altitude Azimuth Time Altitude Azimuth Time Altitude Azimuth
Cosmos 2082 3.9 21:01:19 10° SSW 21:06:55 78° WNW 21:12:35 10° NNE
Cosmos 1954 Rocket 4.2 21:05:20 10° SSW 21:10:33 81° WNW 21:15:45 10° NNE
Cosmos 614 Rocket 4.0 21:07:10 10° S 21:12:20 70° ESE 21:17:31 10° NNE
Cosmos 2297 Rocket 2.5 21:06:56 10° SSW 21:12:34 75° WNW 21:18:15 10° NNE
SL-19 R/B 4.4 21:08:26 10° SSE 21:14:10 87° WSW 21:19:46 10° NNW
Cosmos 1850 Rocket 4.2 21:11:15 10° S 21:16:14 51° ESE 21:21:17 10° NNE
USA 234 3.8 21:10:39 10° ENE 21:16:32 35° SE 21:22:22 10° S
Tiangong 1 1.7 21:16:17 10° W 21:19:01 50° NNW 21:21:45 10° ENE
Cosmos 2221 3.1 21:16:35 10° N 21:20:45 41° ENE 21:24:53 10° SSE
Milstar 3 Cent rocket 4.0 21:19:56 10° WSW 21:26:07 38° S 21:37:26 10° ESE
Okean 3 Rocket 3.8 21:21:55 10° S 21:26:17 52° E 21:30:39 10° NNE
ERS-1 Rocket 3.5 21:22:02 10° SE 21:26:48 45° ENE 21:31:36 10° N
ATLAS 5 CENTAUR R/B 1.7 21:24:42 10° SSW 21:29:18 82° ESE 21:34:18 10° NE
Cosmos 1939 Rocket 3.2 21:27:30 10° S 21:31:27 67° WSW 21:35:31 10° NNW
YAOGAN 6 2.6 21:28:08 10° SSE 21:31:45 77° ENE 21:35:26 10° N
H-2A R/B 3.6 21:29:37 10° ESE 21:33:38 22° ENE 21:37:43 10° NNE
Cosmos 1726 4.0 21:34:05 10° NE 21:36:23 16° ENE 21:38:07 12° ESE
Cosmos 1340 Rocket 3.2 21:34:01 10° SSW 21:38:00 69° W 21:42:03 10° N
Cosmos 1184 Rocket 3.8 21:35:04 10° SSW 21:38:19 50° W 21:41:38 10° N
Cosmos 1818 3.7 21:35:24 10° NNW 21:40:51 69° ENE 21:45:22 15° SE
Cosmos 1741 Rocket 4.0 21:35:46 10° SSW 21:41:05 86° ESE 21:46:26 10° NNE
Cosmos 1766 Rocket 4.2 21:38:12 12° SSE 21:41:51 35° E 21:45:49 10° NNE
Cosmos 2237 Rocket 3.4 21:37:31 10° NW 21:42:41 38° WSW 21:47:49 10° S
NOSS 3-4 (A) 4.2 21:36:20 10° NW 21:43:22 65° WSW 21:50:45 10° SSE
NOSS 3-4 (C) 4.2 21:36:25 10° NW 21:43:28 66° WSW 21:50:49 11° SSE
Terra 4.0 21:41:48 10° E 21:43:33 12° ENE 21:45:17 10° NE
USA 245 4.2 21:46:50 18° ESE 21:48:44 30° ENE 21:52:15 10° N
Resurs 01 Rocket 4.3 21:49:48 10° SW 21:52:17 15° W 21:54:45 10° WNW
H-2A R/B 4.3 21:57:34 10° E 21:58:57 11° ENE 22:00:19 10° NE
Cosmos 1674 2.7 21:56:02 10° S 21:59:49 82° W 22:03:35 10° N
H-2A ROCKET BODY 3.6 21:59:42 10° S 22:02:49 19° SE 22:09:43 10° E
Helios 1B rocket 4.3 21:59:18 10° N 22:02:59 32° WNW 22:06:40 10° SW
Atlas Centaur 2 2.8 22:00:45 10° SW 22:03:05 16° SSW 22:03:34 16° S
Cosmos 1459 Rocket 4.0 21:56:57 10° N 22:03:16 81° E 22:08:40 14° S
Cosmos 2084 4.1 21:59:32 10° SW 22:03:29 52° NW 22:07:15 10° NNE
Cosmos 1908 3.3 22:01:27 10° N 22:05:20 79° W 22:08:11 17° S
ARGOS 3.2 22:01:30 18° SSE 22:05:32 66° ENE 22:10:55 10° N
MetOp-A 4.1 22:01:21 16° SSE 22:05:45 85° ENE 22:11:08 10° NNW
Cosmos 2100 Rocket 4.0 21:59:49 10° N 22:06:10 89° W 22:11:58 13° S
SL-16 R/B 2.6 22:01:28 10° NNW 22:07:03 60° WSW 22:11:44 15° S
Cosmos 2061 Rocket 4.0 22:03:44 10° N 22:10:10 83° E 22:15:28 16° S
KORONAS-FOTON 3.7 22:10:28 14° S 22:13:39 85° W 22:17:28 10° N
Cosmos 2123 Rocket 4.1 22:11:01 17° SSE 22:15:39 56° E 22:21:42 10° NNE
Cosmos 2173 Rocket 4.1 22:11:31 10° N 22:17:41 79° W 22:23:00 15° S
Cosmos 2208 Rocket 4.3 22:12:46 10° NNW 22:18:04 65° WSW 22:21:57 19° S
Cosmos 1486 Rocket 4.5 22:20:43 25° SSE 22:23:15 41° ESE 22:28:12 10° NNE
SPOT 1/Viking Rocket 3.5 22:25:32 27° SSE 22:28:20 71° ENE 22:33:29 10° N
Cosmos 220 Rocket 4.0 22:30:12 26° S 22:32:34 65° ESE 22:36:56 10° NNE
Cosmos 1242 Rocket 3.9 22:29:09 10° NNW 22:32:35 35° W 22:34:53 17° SSW
Cosmos 1763 Rocket 4.0 22:28:06 10° N 22:33:00 43° ENE 22:35:00 29° ESE
Cosmos 1802 Rocket 4.3 22:33:16 10° NNW 22:39:18 61° W 22:43:58 17° SSW
Cosmos 1725 Rocket 3.9 22:33:54 10° N 22:40:11 78° E 22:43:35 29° SSE
SPOT 5 3.2 22:37:41 25° S 22:40:26 63° W 22:45:27 10° NNW
Cosmos 2058 3.5 22:41:53 37° ESE 22:42:20 38° E 22:46:16 10° NNE
Cosmos 1408 Rocket 4.5 22:39:20 12° SSW 22:43:07 45° W 22:47:16 10° N
Cosmos 371 Rocket 3.3 22:39:16 10° NNW 22:44:05 69° ENE 22:45:44 40° SE
Lacrosse 5 1.9 22:39:37 10° NW 22:44:42 74° NE 22:46:42 37° ESE
deb Chang Zheng 4 4.3 22:45:32 10° NNE 22:49:33 35° E 22:49:38 35° E
Meteor 1-27 4.5 22:45:17 10° N 22:51:01 56° ENE 22:53:06 36° SE
OAO 1 Rocket 4.5 22:46:27 10° WSW 22:51:42 58° S 22:53:31 38° ESE
CZ-4C R/B 4.1 22:56:27 13° E 22:56:27 13° E 22:57:41 10° ENE
Tiangong 1 2.1 22:52:16 10° WNW 22:54:53 35° N 22:55:09 34° NNE
Abrixas rocket 3.4 22:53:11 10° NW 22:56:13 35° NNE 22:56:48 32° NE
RESURS DK-1 2.6 22:53:04 10° NNW 22:57:12 63° WSW 22:58:06 48° SSW
USA 234 3.7 22:53:16 10° NE 22:59:43 64° NW 23:06:09 10° WSW
Cosmos 468 Rocket 4.5 22:56:52 10° NNW 23:01:51 52° WSW 23:03:53 32° SSW
EO 1 Delta rocket 4.3 22:59:49 30° SSW 23:01:57 53° W 23:06:29 10° NNW
Cosmos 1500 Rocket 3.6 23:01:39 43° SSW 23:03:05 82° W 23:07:33 10° N
Cosmos 2151 2.9 23:02:31 56° S 23:03:23 83° E 23:07:43 10° N
SL-14 R/B 4.2 23:02:08 27° SW 23:03:55 45° W 23:07:44 10° N
Cosmos 1626 2.3 23:05:11 57° ENE 23:05:11 57° ENE 23:08:36 10° NNE
Landsat 7 3.9 23:04:12 43° S 23:05:41 73° WSW 23:10:28 10° NNW
Cosmos 2263 Rocket 2.0 23:04:26 35° S 23:06:48 74° ESE 23:12:23 10° NNE
Cosmos 1503 Rocket 4.1 23:08:10 49° SE 23:09:03 55° ESE 23:14:06 10° NNE
Cosmos 1300 3.7 23:05:50 10° NNW 23:09:27 40° W 23:10:18 34° SW
Cosmos 1726 3.8 23:08:35 10° NNW 23:11:43 27° W 23:12:45 23° WSW
H-2A R/B 2.8 23:10:15 28° SSW 23:12:41 46° W 23:17:53 10° NNW
CARTOSAT-1 3.5 23:12:29 63° S 23:13:10 84° WSW 23:17:30 10° NNW
Terra 1.8 23:19:38 54° SSW 23:20:38 74° WSW 23:25:25 10° NNW
Cosmos 1805 Rocket 4.1 23:22:29 44° ENE 23:22:29 44° ENE 23:26:16 10° NNE
CZ-4 R/B 3.7 23:17:37 10° NNE 23:22:29 74° ESE 23:23:08 63° SSE
Cosmos 1633 Rocket 4.4 23:28:52 26° ENE 23:28:52 26° ENE 23:31:47 10° NNE
CZ-4B R/B 3.5 23:26:14 10° NNE 23:31:31 73° ESE 23:32:19 61° SSE
SL-19 R/B 4.3 23:26:49 10° N 23:32:10 75° WNW 23:34:17 39° SSW
Cosmos 2233 Rocket 4.2 23:27:18 10° NNW 23:33:25 64° W 23:35:40 39° SSW
H-2A R/B 2.1 23:34:10 63° WSW 23:34:26 64° WSW 23:38:41 10° NNW
Cosmos 540 Rocket 3.6 23:30:20 10° N 23:35:26 60° ENE 23:36:05 55° ESE
Cosmos 1151 Rocket 3.8 23:32:57 10° NNW 23:37:06 43° W 23:37:42 40° WSW
CZ-2C R/B 4.4 23:37:55 27° E 23:39:19 31° ENE 23:44:14 10° N
Cosmos 1844 Rocket 3.8 23:41:57 27° E 23:41:57 27° E 23:45:49 10° NE
IGS 5A 4.3 23:41:12 40° WSW 23:41:24 40° W 23:45:20 10° NNW
Delta 2 Rocket 4.3 23:37:17 10° WSW 23:41:58 50° SSW 23:41:58 50° SSW
Cosmos 1455 2.6 23:39:21 10° N 23:42:40 63° NNW 23:42:40 63° NNW
Cosmos 1869 4.2 23:41:02 10° N 23:44:06 41° NE 23:44:06 41° NE
Spot 4 3.7 23:47:15 72° SSW 23:47:38 78° WSW 23:52:31 10° NNW
Cosmos 304 Rocket 3.6 23:42:57 10° NNW 23:47:46 89° WSW 23:47:54 85° S
ERBS 4.2 23:45:29 10° NW 23:47:11 25° WNW 23:47:11 25° WNW
CZ-4C R/B 3.5 23:49:57 76° NNE 23:49:57 76° NNE 23:54:03 10° N
Cosmos 1943 3.7 23:44:58 10° NW 23:50:23 48° WSW 23:51:21 43° SW
Cosmos 1354 Rocket 4.5 23:51:22 39° SW 23:53:04 57° WNW 23:58:13 10° N
